Tracking 25710 objects as of 5-Jul-2022
HD Live streaming from Space Station
objects crossing your sky now

FENGYUN 1C DEB

Track FENGYUN 1C DEB now!
10-day predictions


NORAD ID: 31062
Int'l Code: 1999-025BFG
Perigee: 860.4 km
Apogee: 1,119.2 km
Inclination: 99.1 °
Period: 104.7 minutes
Semi major axis: 7360 km
RCS: 0.0043 m2 (small)
Launch date: May 10, 1999
Source: People's Republic of China (PRC)
Launch site: Taiyaun Space Center, China (TSC)

Note: This is SATELLITE DEBRIS
aabbcc
Your satellite tracking list
Your tracking list is empty




NASA's NSSDC Master Catalog

Two Line Element Set (TLE):
1 31062U 99025BFG 22185.60683587  .00000109  00000-0  14109-3 0  9996
2 31062  99.1124  56.9690 0175791  47.0723   9.1260 13.74722600769550
Source of the keplerian elements: AFSPC